Tracking 19146 objects as of 24-Apr-2018
HD Live streaming from Space Station
objects crossing your sky now

FENGYUN 1C DEB

Track FENGYUN 1C DEB now!
10-day predictions


NORAD ID: 31272
Int'l Code: 1999-025BNE
Perigee: 758.1 km
Apogee: 925.7 km
Inclination: 99.0 °
Period: 101.6 minutes
Semi major axis: 7212 km
RCS: 0.0083 m2 (small)
Launch date: May 10, 1999
Source: People's Republic of China (PRC)
Launch site: Taiyaun Space Center, China (TSC)

Note: This is SATELLITE DEBRIS
aabbcc
Your satellite tracking list
Your tracking list is empty




NASA's NSSDC Master Catalog

Two Line Element Set (TLE):
1 31272U 99025BNE 18113.28858720 +.00000237 +00000-0 +13087-3 0  9998
2 31272 099.0016 230.2591 0116215 121.5300 269.4610 14.17221785574194
Source of the keplerian elements: AFSPC